This is the latest recevied weather packets stored in our database for station/object SV9TNF-56. If no packets are shown the sender has not sent any weather packets the latest 10 day(s).
| Time | Temp. | Humidity | Pressure | Rain* | Wind** | Luminosity | Snow |
|---|---|---|---|---|---|---|---|
| 1788340421 | 26.11° C | 57% | 1011.9 hPa | 0 mm | 15.2 m/s, 70° | - | - |
| 1788339821 | 26.11° C | 59% | 1011.9 hPa | 0 mm | 13.41 m/s, 173° | - | - |
| 1788339521 | 26.11° C | 59% | 1011.9 hPa | 0 mm | 12.96 m/s, 174° | - | - |
| 1788339221 | 26.67° C | 59% | 1011.9 hPa | 0 mm | 22.35 m/s, 144° | - | - |
| 1788338920 | 26.67° C | 59% | 1012.2 hPa | 0 mm | 7.6 m/s, 103° | - | - |
| 1788338620 | 26.11° C | 60% | 1011.9 hPa | 0 mm | 25.93 m/s, 172° | - | - |
| 1788338320 | 26.67° C | 58% | 1012.2 hPa | 0 mm | 8.49 m/s, 185° | - | - |
| 1788338020 | 26.67° C | 59% | 1011.9 hPa | 0 mm | 22.35 m/s, 185° | - | - |
| 1788337720 | 26.67° C | 58% | 1011.9 hPa | 0 mm | 13.86 m/s, 121° | - | - |
| 1788337420 | 26.11° C | 59% | 1012.2 hPa | 0 mm | 14.75 m/s, 282° | - | - |
| 1788337120 | 26.67° C | 60% | 1012.2 hPa | 0 mm | 23.25 m/s, 206° | - | - |
| 1788336820 | 26.67° C | 58% | 1012.2 hPa | 0 mm | 12.96 m/s, 144° | - | - |
| 1788336520 | 26.67° C | 56% | 1012.2 hPa | 0 mm | 10.28 m/s, 181° | - | - |
| 1788336220 | 26.67° C | 55% | 1012.2 hPa | 0 mm | 18.33 m/s, 126° | - | - |
| 1788335920 | 26.67° C | 53% | 1011.9 hPa | 0 mm | 17.88 m/s, 135° | - | - |
| 1788335619 | 26.11° C | 59% | 1011.9 hPa | 0 mm | 14.75 m/s, 126° | - | - |
| 1788335320 | 26.11° C | 60% | 1011.9 hPa | 0 mm | 15.2 m/s, 77° | - | - |
| 1788335019 | 26.11° C | 59% | 1012.2 hPa | 0 mm | 8.05 m/s, 104° | - | - |
| 1788334719 | 26.11° C | 61% | 1011.9 hPa | 0 mm | 5.81 m/s, 142° | - | - |
| 1788334419 | 26.11° C | 60% | 1012.2 hPa | 0 mm | 8.49 m/s, 138° | - | - |
| 1788334119 | 25.56° C | 60% | 1011.9 hPa | 0 mm | 9.83 m/s, 138° | - | - |
| 1788333819 | 26.11° C | 58% | 1011.9 hPa | 0 mm | 12.52 m/s, 110° | - | - |
| 1788333519 | 25.56° C | 59% | 1011.9 hPa | 0 mm | 14.75 m/s, 231° | - | - |
| 1788333219 | 25.56° C | 60% | 1011.9 hPa | 0 mm | 11.18 m/s, 138° | - | - |
| 1788332919 | 25.56° C | 60% | 1011.9 hPa | 0 mm | 9.83 m/s, 194° | - | - |
* Rain latest hour (hover to see other rain measurements)
** Current wind speed in m/s (hover to see current wind gust speed)